DW7325 Weather Reports


Display with metric or nautical units.
time (UTC)temp
F
wind
direction
speed
MPH
gust
MPH
rain 1hr
in
rain 24hr
in
rain mn
in
humidity
%
barometer
mb
20260510185526 83 186 0.0 3.0 0.00 0.00 0.00 41 1011.5
20260510185421 83 188 0.0 3.0 0.00 0.00 0.00 41 1011.5
20260510185316 83 157 0.0 3.0 0.00 0.00 0.00 40 1011.6
20260510184729 84 96 0.0 3.0 0.00 0.00 0.00 38 1011.5
20260510184622 84 115 0.0 3.0 0.00 0.00 0.00 36 1011.4
20260510184519 84 293 0.0 5.0 0.00 0.00 0.00 37 1011.4
20260510184414 84 127 0.0 5.0 0.00 0.00 0.00 36 1011.4
20260510184310 84 202 1.0 5.0 0.00 0.00 0.00 37 1011.4
20260510184204 84 216 1.0 5.0 0.00 0.00 0.00 37 1011.4
20260510183842 84 113 1.0 5.0 0.00 0.00 0.00 36 1011.4
20260510183736 84 217 1.0 5.0 0.00 0.00 0.00 39 1011.4
20260510183629 84 143 1.0 5.0 0.00 0.00 0.00 39 1011.4
20260510183301 84 103 1.0 5.0 0.00 0.00 0.00 38 1011.5
20260510183157 84 153 1.0 5.0 0.00 0.00 0.00 40 1011.4
20260510183053 84 286 1.0 5.0 0.00 0.00 0.00 39 1011.4
20260510182950 84 16 1.0 5.0 0.00 0.00 0.00 38 1011.4
20260510182844 84 251 0.0 5.0 0.00 0.00 0.00 38 1011.4
20260510182739 84 223 0.0 5.0 0.00 0.00 0.00 38 1011.4
20260510182631 84 267 0.0 5.0 0.00 0.00 0.00 39 1011.4
20260510182526 84 106 0.0 3.0 0.00 0.00 0.00 39 1011.4
20260510182203 84 209 0.0 2.0 0.00 0.00 0.00 40 1011.4
20260510181618 84 14 0.0 2.0 0.00 0.00 0.00 38 1011.5
20260510181515 84 157 0.0 0.0 0.00 0.00 0.00 37 1011.5
20260510181149 84 107 0.0 2.0 0.00 0.00 0.00 39 1011.6
20260510181043 84 107 0.0 2.0 0.00 0.00 0.00 37 1011.7
20260510180939 84 107 0.0 2.0 0.00 0.00 0.00 36 1011.7
20260510180835 85 146 0.0 2.0 0.00 0.00 0.00 38 1011.7
20260510180732 85 153 0.0 2.0 0.00 0.00 0.00 39 1011.7
20260510180625 85 200 0.0 2.0 0.00 0.00 0.00 39 1011.7
20260510180522 85 144 0.0 2.0 0.00 0.00 0.00 38 1011.7
20260510180416 85 157 0.0 2.0 0.00 0.00 0.00 40 1011.7
20260510180314 85 157 0.0 2.0 0.00 0.00 0.00 38 1011.6
20260510175947 85 115 0.0 2.0 0.00 0.00 0.00 38 1011.7
20260510175843 85 115 0.0 2.0 0.00 0.00 0.00 39 1011.8
20260510175738 85 208 0.0 2.0 0.00 0.00 0.00 39 1011.9
20260510175415 85 137 0.0 2.0 0.00 0.00 0.00 37 1011.9
20260510175308 85 112 0.0 2.0 0.00 0.00 0.00 36 1011.9
20260510175204 85 264 0.0 2.0 0.00 0.00 0.00 36 1011.9
20260510175058 85 259 0.0 2.0 0.00 0.00 0.00 38 1012.0
20260510174950 85 120 0.0 1.0 0.00 0.00 0.00 39 1012.0
20260510174845 85 73 0.0 3.0 0.00 0.00 0.00 39 1011.9
20260510174741 85 132 0.0 3.0 0.00 0.00 0.00 39 1012.0
20260510174637 85 155 0.0 3.0 0.00 0.00 0.00 38 1012.0
20260510174532 85 155 0.0 3.0 0.00 0.00 0.00 38 1012.0
20260510174426 85 225 0.0 3.0 0.00 0.00 0.00 38 1012.0
20260510174320 85 255 0.0 3.0 0.00 0.00 0.00 39 1012.0
20260510173958 85 240 0.0 3.0 0.00 0.00 0.00 40 1012.1
20260510173852 85 278 0.0 3.0 0.00 0.00 0.00 40 1012.1
20260510173749 85 317 0.0 3.0 0.00 0.00 0.00 37 1012.1
20260510173645 84 327 0.0 3.0 0.00 0.00 0.00 37 1012.1
20260510173538 84 196 0.0 3.0 0.00 0.00 0.00 36 1012.1
20260510173432 84 296 0.0 3.0 0.00 0.00 0.00 37 1012.0
20260510173329 85 65 0.0 3.0 0.00 0.00 0.00 35 1012.1
20260510173223 85 47 0.0 3.0 0.00 0.00 0.00 35 1012.1
20260510172857 85 121 0.0 8.0 0.00 0.00 0.00 41 1012.3
20260510172752 85 294 0.0 8.0 0.00 0.00 0.00 40 1012.3
20260510172646 85 314 0.0 8.0 0.00 0.00 0.00 38 1012.2
20260510172542 85 108 1.0 8.0 0.00 0.00 0.00 38 1012.3
20260510172436 85 135 1.0 8.0 0.00 0.00 0.00 39 1012.3
20260510172113 85 329 1.0 8.0 0.00 0.00 0.00 39 1012.3
20260510172009 85 14 1.0 8.0 0.00 0.00 0.00 40 1012.3
20260510171906 85 246 1.0 8.0 0.00 0.00 0.00 40 1012.3
20260510171544 84 191 1.0 8.0 0.00 0.00 0.00 37 1012.3
20260510171442 84 267 1.0 8.0 0.00 0.00 0.00 38 1012.4
20260510171335 84 93 1.0 8.0 0.00 0.00 0.00 38 1012.4
20260510171230 84 276 2.0 8.0 0.00 0.00 0.00 38 1012.4
20260510171127 84 223 1.0 8.0 0.00 0.00 0.00 41 1012.4
20260510171019 84 251 1.0 8.0 0.00 0.00 0.00 38 1012.4
20260510170916 84 198 1.0 5.0 0.00 0.00 0.00 38 1012.5
20260510170815 84 213 1.0 5.0 0.00 0.00 0.00 38 1012.4
20260510170713 84 162 1.0 3.0 0.00 0.00 0.00 38 1012.4
20260510170610 84 107 1.0 3.0 0.00 0.00 0.00 37 1012.4
20260510170506 84 98 1.0 3.0 0.00 0.00 0.00 40 1012.4
20260510170359 85 252 1.0 4.0 0.00 0.00 0.00 39 1012.4
20260510170256 85 276 0.0 4.0 0.00 0.00 0.00 39 1012.4
20260510170154 85 30 0.0 4.0 0.00 0.00 0.00 39 1012.4
20260510170052 85 34 0.0 4.0 0.00 0.00 0.00 39 1012.4
20260510165945 85 217 0.0 4.0 0.00 0.00 0.00 41 1012.5
20260510165842 84 51 0.0 4.0 0.00 0.00 0.00 41 1012.4
20260510165738 84 322 0.0 4.0 0.00 0.00 0.00 41 1012.4
20260510165636 84 13 0.0 4.0 0.00 0.00 0.00 38 1012.4
20260510165535 84 235 0.0 4.0 0.00 0.00 0.00 39 1012.4
20260510165430 84 21 0.0 4.0 0.00 0.00 0.00 42 1012.4
20260510165327 84 70 0.0 4.0 0.00 0.00 0.00 41 1012.4
20260510164742 83 218 0.0 4.0 0.00 0.00 0.00 38 1012.4
20260510164634 83 79 0.0 4.0 0.00 0.00 0.00 38 1012.4
20260510164527 83 188 0.0 4.0 0.00 0.00 0.00 40 1012.4
20260510164421 83 228 0.0 4.0 0.00 0.00 0.00 40 1012.4
20260510164315 83 218 0.0 4.0 0.00 0.00 0.00 39 1012.4
20260510164207 83 236 0.0 4.0 0.00 0.00 0.00 40 1012.4
20260510163627 82 131 1.0 4.0 0.00 0.00 0.00 43 1012.4
20260510163519 82 171 1.0 4.0 0.00 0.00 0.00 43 1012.4
20260510163417 82 355 1.0 7.0 0.00 0.00 0.00 41 1012.4
20260510163310 82 296 1.0 7.0 0.00 0.00 0.00 43 1012.4
20260510163202 82 9 1.0 7.0 0.00 0.00 0.00 43 1012.5
20260510163057 82 53 1.0 7.0 0.00 0.00 0.00 41 1012.5
20260510162950 82 28 1.0 7.0 0.00 0.00 0.00 41 1012.5
20260510162628 83 53 1.0 7.0 0.00 0.00 0.00 41 1012.5
20260510162301 83 169 1.0 7.0 0.00 0.00 0.00 42 1012.6
20260510162158 83 90 1.0 7.0 0.00 0.00 0.00 42 1012.6
20260510161830 83 355 1.0 7.0 0.00 0.00 0.00 42 1012.7
20260510161505 83 232 1.0 7.0 0.00 0.00 0.00 41 1012.8
20260510161401 83 227 1.0 6.0 0.00 0.00 0.00 39 1012.8
20260510161254 83 65 1.0 6.0 0.00 0.00 0.00 39 1012.8
20260510161147 83 229 1.0 6.0 0.00 0.00 0.00 41 1012.8
20260510161044 83 212 0.0 6.0 0.00 0.00 0.00 41 1012.7
20260510160941 83 242 0.0 6.0 0.00 0.00 0.00 42 1012.8
20260510160839 83 267 0.0 6.0 0.00 0.00 0.00 41 1012.7
20260510160250 82 177 1.0 6.0 0.00 0.00 0.00 42 1012.8
20260510160146 82 112 1.0 6.0 0.00 0.00 0.00 43 1012.7
20260510160042 82 248 1.0 6.0 0.00 0.00 0.00 44 1012.8
20260510155716 82 178 1.0 6.0 0.00 0.00 0.00 42 1012.8
20260510155614 82 179 0.0 6.0 0.00 0.00 0.00 41 1012.8
20260510155249 81 87 0.0 6.0 0.00 0.00 0.00 46 1012.8
20260510155141 81 221 0.0 6.0 0.00 0.00 0.00 44 1012.9
20260510155037 81 211 0.0 6.0 0.00 0.00 0.00 43 1012.8
20260510154932 81 140 0.0 6.0 0.00 0.00 0.00 43 1012.9
20260510154607 81 44 1.0 6.0 0.00 0.00 0.00 42 1012.9
20260510154500 81 120 1.0 6.0 0.00 0.00 0.00 45 1012.9
20260510154354 81 15 1.0 6.0 0.00 0.00 0.00 45 1012.8
20260510154252 81 246 1.0 6.0 0.00 0.00 0.00 46 1012.9
20260510154148 80 13 1.0 6.0 0.00 0.00 0.00 46 1012.9
20260510154041 80 242 1.0 6.0 0.00 0.00 0.00 45 1012.9
20260510153938 80 215 1.0 6.0 0.00 0.00 0.00 45 1012.8
20260510153832 80 318 0.0 6.0 0.00 0.00 0.00 47 1012.8
20260510153725 80 36 0.0 6.0 0.00 0.00 0.00 42 1012.8
20260510153619 80 36 0.0 6.0 0.00 0.00 0.00 43 1012.8
20260510153516 80 273 0.0 6.0 0.00 0.00 0.00 43 1012.9
20260510153156 80 186 0.0 4.0 0.00 0.00 0.00 46 1012.9
20260510153050 80 170 0.0 4.0 0.00 0.00 0.00 47 1012.9
20260510152947 80 125 0.0 4.0 0.00 0.00 0.00 48 1012.9
20260510152403 79 234 0.0 4.0 0.00 0.00 0.00 48 1012.9
20260510152259 78 284 0.0 4.0 0.00 0.00 0.00 56 1012.8
20260510151936 77 318 0.0 4.0 0.00 0.00 0.00 55 1012.9
20260510151834 77 211 0.0 4.0 0.00 0.00 0.00 55 1012.8
20260510151726 76 237 0.0 4.0 0.00 0.00 0.00 52 1012.8
20260510151622 76 180 0.0 4.0 0.00 0.00 0.00 52 1012.8
20260510151517 76 209 0.0 4.0 0.00 0.00 0.00 51 1012.8
20260510151152 76 87 0.0 2.0 0.00 0.00 0.00 49 1012.8
20260510151047 76 167 0.0 2.0 0.00 0.00 0.00 51 1012.8
20260510150944 76 252 0.0 2.0 0.00 0.00 0.00 53 1012.8
20260510150841 76 252 0.0 2.0 0.00 0.00 0.00 58 1012.8
20260510150258 75 59 0.0 0.0 0.00 0.00 0.00 52 1012.8
20260510150152 75 134 0.0 0.0 0.00 0.00 0.00 54 1012.8
20260510145828 74 185 0.0 0.0 0.00 0.00 0.00 57 1012.9
20260510145721 74 185 0.0 0.0 0.00 0.00 0.00 55 1012.8
20260510145617 74 185 0.0 0.0 0.00 0.00 0.00 57 1012.8
20260510145510 74 185 0.0 1.0 0.00 0.00 0.00 58 1012.8
20260510144923 74 171 0.0 1.0 0.00 0.00 0.00 65 1012.9
20260510144817 74 171 0.0 1.0 0.00 0.00 0.00 64 1012.8
20260510144456 73 80 0.0 1.0 0.00 0.00 0.00 63 1012.9
20260510144350 73 105 0.0 1.0 0.00 0.00 0.00 64 1012.8
20260510144245 73 105 0.0 1.0 0.00 0.00 0.00 63 1012.8
20260510144141 73 105 0.0 1.0 0.00 0.00 0.00 61 1012.8
20260510144033 73 225 0.0 1.0 0.00 0.00 0.00 58 1012.8
20260510143926 73 218 0.0 1.0 0.00 0.00 0.00 60 1012.8
20260510143823 73 250 0.0 1.0 0.00 0.00 0.00 64 1012.8
20260510143501 73 306 0.0 0.0 0.00 0.00 0.00 63 1012.7
20260510143136 72 281 0.0 1.0 0.00 0.00 0.00 62 1012.6
20260510143032 72 281 0.0 1.0 0.00 0.00 0.00 63 1012.6
20260510142929 72 281 0.0 1.0 0.00 0.00 0.00 63 1012.6
20260510142825 72 281 0.0 1.0 0.00 0.00 0.00 63 1012.6
20260510142721 72 0 0.0 0.0 0.00 0.00 0.00 64 1012.6
20260510142617 72 0 0.0 0.0 0.00 0.00 0.00 65 1012.6
20260510142512 72 0 0.0 0.0 0.00 0.00 0.00 66 1012.6
20260510142405 72 0 0.0 1.0 0.00 0.00 0.00 65 1012.6
20260510142257 72 0 0.0 1.0 0.00 0.00 0.00 65 1012.5
20260510142153 72 0 0.0 1.0 0.00 0.00 0.00 66 1012.5
20260510142046 72 0 0.0 1.0 0.00 0.00 0.00 65 1012.5
20260510141944 72 0 0.0 1.0 0.00 0.00 0.00 65 1012.5
20260510141836 72 0 0.0 1.0 0.00 0.00 0.00 65 1012.5
20260510141512 72 268 0.0 1.0 0.00 0.00 0.00 66 1012.4
20260510141404 71 259 0.0 0.0 0.00 0.00 0.00 66 1012.5
20260510141301 71 325 0.0 0.0 0.00 0.00 0.00 66 1012.5
20260510140935 71 325 0.0 0.0 0.00 0.00 0.00 69 1012.4
20260510140829 71 325 0.0 0.0 0.00 0.00 0.00 70 1012.5
20260510140725 71 30 0.0 0.0 0.00 0.00 0.00 71 1012.4
20260510140622 70 30 0.0 0.0 0.00 0.00 0.00 72 1012.4
20260510140515 70 30 0.0 0.0 0.00 0.00 0.00 71 1012.4
20260510140411 70 30 0.0 0.0 0.00 0.00 0.00 68 1012.3
20260510140304 70 30 0.0 0.0 0.00 0.00 0.00 68 1012.3
20260510140157 70 30 0.0 0.0 0.00 0.00 0.00 68 1012.3
20260510140054 70 30 0.0 0.0 0.00 0.00 0.00 68 1012.4
20260510135949 70 30 0.0 0.0 0.00 0.00 0.00 68 1012.3
20260510135844 70 30 0.0 0.0 0.00 0.00 0.00 67 1012.4
20260510135739 70 30 0.0 0.0 0.00 0.00 0.00 67 1012.4
20260510135413 70 30 0.0 0.0 0.00 0.00 0.00 67 1012.4
20260510135308 69 30 0.0 0.0 0.00 0.00 0.00 66 1012.4
20260510134941 69 30 0.0 0.0 0.00 0.00 0.00 69 1012.4
20260510134835 69 30 0.0 0.0 0.00 0.00 0.00 69 1012.4
20260510134730 68 30 0.0 0.0 0.00 0.00 0.00 69 1012.4
20260510134404 68 96 0.0 0.0 0.00 0.00 0.00 73 1012.5
20260510134259 68 96 0.0 0.0 0.00 0.00 0.00 73 1012.5
20260510134152 67 96 0.0 0.0 0.00 0.00 0.00 71 1012.5
20260510134047 67 96 0.0 0.0 0.00 0.00 0.00 71 1012.5
20260510133941 67 96 0.0 1.0 0.00 0.00 0.00 71 1012.5
20260510133837 66 96 0.0 1.0 0.00 0.00 0.00 75 1012.5
20260510133511 65 96 0.0 1.0 0.00 0.00 0.00 73 1012.5
20260510133406 65 96 0.0 1.0 0.00 0.00 0.00 73 1012.6
20260510133040 64 185 0.0 0.0 0.00 0.00 0.00 80 1012.5
20260510132935 64 185 0.0 0.0 0.00 0.00 0.00 80 1012.6
20260510132834 63 185 0.0 0.0 0.00 0.00 0.00 79 1012.6
20260510132508 62 185 0.0 0.0 0.00 0.00 0.00 80 1012.6
20260510132406 62 185 0.0 1.0 0.00 0.00 0.00 81 1012.6
20260510132042 61 252 0.0 1.0 0.00 0.00 0.00 84 1012.6
20260510131937 61 252 0.0 1.0 0.00 0.00 0.00 84 1012.6
20260510131612 61 92 0.0 0.0 0.00 0.00 0.00 91 1012.5
20260510131508 60 92 0.0 0.0 0.00 0.00 0.00 91 1012.5
20260510131401 60 92 0.0 0.0 0.00 0.00 0.00 91 1012.5
20260510131039 60 92 0.0 0.0 0.00 0.00 0.00 92 1012.5
20260510130935 60 92 0.0 0.0 0.00 0.00 0.00 92 1012.6
20260510130609 59 92 0.0 0.0 0.00 0.00 0.00 92 1012.5
20260510130506 59 92 0.0 1.0 0.00 0.00 0.00 92 1012.5
20260510130400 59 92 0.0 1.0 0.00 0.00 0.00 92 1012.5
20260510130255 59 92 0.0 1.0 0.00 0.00 0.00 93 1012.5
20260510130152 58 92 0.0 1.0 0.00 0.00 0.00 93 1012.5
20260510130044 58 106 0.0 0.0 0.00 0.00 0.00 93 1012.5
20260510125719 58 106 0.0 0.0 0.00 0.00 0.00 94 1012.6
20260510125353 58 106 0.0 0.0 0.00 0.00 0.00 94 1012.7
20260510125245 57 106 0.0 0.0 0.00 0.00 0.00 94 1012.7
20260510125138 57 106 0.0 0.0 0.00 0.00 0.00 94 1012.7
20260510125030 57 106 0.0 0.0 0.00 0.00 0.00 94 1012.7
20260510124924 57 106 0.0 0.0 0.00 0.00 0.00 94 1012.7
20260510124820 57 106 0.0 0.0 0.00 0.00 0.00 94 1012.7
20260510124716 57 106 0.0 0.0 0.00 0.00 0.00 95 1012.7
20260510124609 57 106 0.0 0.0 0.00 0.00 0.00 95 1012.7
20260510124505 56 106 0.0 0.0 0.00 0.00 0.00 95 1012.7
20260510124144 56 106 0.0 0.0 0.00 0.00 0.00 95 1012.8
20260510124037 56 76 0.0 0.0 0.00 0.00 0.00 95 1012.8
20260510123933 56 76 0.0 0.0 0.00 0.00 0.00 95 1012.8
20260510123824 56 76 0.0 0.0 0.00 0.00 0.00 95 1012.8
20260510123719 56 76 0.0 0.0 0.00 0.00 0.00 95 1012.7
20260510123615 55 76 0.0 0.0 0.00 0.00 0.00 95 1012.7
20260510123512 55 107 0.0 0.0 0.00 0.00 0.00 95 1012.7
20260510123140 55 107 0.0 0.0 0.00 0.00 0.00 95 1012.8
20260510123038 55 107 0.0 0.0 0.00 0.00 0.00 95 1012.8
20260510122931 55 107 0.0 0.0 0.00 0.00 0.00 95 1012.8
20260510122823 54 107 0.0 0.0 0.00 0.00 0.00 95 1012.8
20260510122715 54 107 0.0 0.0 0.00 0.00 0.00 95 1012.8
20260510122609 54 107 0.0 0.0 0.00 0.00 0.00 95 1012.8
20260510122502 54 107 0.0 0.0 0.00 0.00 0.00 95 1012.8
20260510122357 54 107 0.0 0.0 0.00 0.00 0.00 95 1012.8
20260510122254 54 107 0.0 0.0 0.00 0.00 0.00 95 1012.8
20260510122148 54 107 0.0 0.0 0.00 0.00 0.00 95 1012.8
20260510122043 54 107 0.0 0.0 0.00 0.00 0.00 95 1012.7
20260510121937 54 107 0.0 0.0 0.00 0.00 0.00 95 1012.7
20260510121832 54 107 0.0 0.0 0.00 0.00 0.00 95 1012.7
20260510121728 53 107 0.0 0.0 0.00 0.00 0.00 95 1012.7
20260510121623 53 107 0.0 0.0 0.00 0.00 0.00 95 1012.6
20260510121515 53 107 0.0 0.0 0.00 0.00 0.00 95 1012.6
20260510121409 53 107 0.0 0.0 0.00 0.00 0.00 94 1012.6
20260510121305 53 107 0.0 0.0 0.00 0.00 0.00 94 1012.6
20260510120945 53 107 0.0 0.0 0.00 0.00 0.00 94 1012.5
20260510120838 53 107 0.0 0.0 0.00 0.00 0.00 94 1012.5
20260510120516 53 165 0.0 0.0 0.00 0.00 0.00 94 1012.5
20260510120410 53 165 0.0 0.0 0.00 0.00 0.00 94 1012.4
20260510120308 52 165 0.0 1.0 0.00 0.00 0.00 94 1012.5
20260510115727 52 165 0.0 1.0 0.00 0.00 0.00 94 1012.4
20260510115621 52 231 0.0 0.0 0.00 0.00 0.00 94 1012.3
20260510115515 52 231 0.0 0.0 0.00 0.00 0.00 94 1012.3
20260510115412 52 231 0.0 0.0 0.00 0.00 0.00 94 1012.3
20260510115047 52 294 0.0 0.0 0.00 0.00 0.00 94 1012.3
20260510114942 52 294 0.0 0.0 0.00 0.00 0.00 94 1012.3
20260510114836 52 294 0.0 0.0 0.00 0.00 0.00 94 1012.3
20260510114729 52 294 0.0 0.0 0.00 0.00 0.00 94 1012.3
20260510114625 52 294 0.0 0.0 0.00 0.00 0.00 94 1012.2
20260510114258 51 294 0.0 0.0 0.00 0.00 0.00 94 1012.2
20260510114150 51 294 0.0 0.0 0.00 0.00 0.00 94 1012.1
20260510114043 51 294 0.0 0.0 0.00 0.00 0.00 94 1012.2
20260510113938 51 294 0.0 0.0 0.00 0.00 0.00 94 1012.1
20260510113831 51 294 0.0 0.0 0.00 0.00 0.00 94 1012.1
20260510113727 51 294 0.0 0.0 0.00 0.00 0.00 94 1012.0
20260510113622 51 294 0.0 0.0 0.00 0.00 0.00 94 1012.1
20260510113515 51 294 0.0 1.0 0.00 0.00 0.00 94 1012.1
20260510113409 51 294 0.0 1.0 0.00 0.00 0.00 94 1012.1
20260510113308 51 269 0.0 1.0 0.00 0.00 0.00 94 1012.1
20260510113203 51 342 0.0 0.0 0.00 0.00 0.00 93 1012.0
20260510113058 51 342 0.0 0.0 0.00 0.00 0.00 93 1012.0
20260510112957 51 342 0.0 0.0 0.00 0.00 0.00 93 1012.0
20260510112852 51 342 0.0 0.0 0.00 0.00 0.00 93 1012.0
20260510112749 51 342 0.0 0.0 0.00 0.00 0.00 93 1012.0
20260510112647 51 342 0.0 0.0 0.00 0.00 0.00 93 1012.0
20260510112544 51 342 0.0 0.0 0.00 0.00 0.00 93 1012.0
20260510112439 51 342 0.0 0.0 0.00 0.00 0.00 93 1011.9
20260510112332 51 342 0.0 0.0 0.00 0.00 0.00 93 1011.9
20260510112226 51 342 0.0 0.0 0.00 0.00 0.00 93 1011.9
20260510112117 51 342 0.0 0.0 0.00 0.00 0.00 93 1012.0
20260510112012 51 342 0.0 0.0 0.00 0.00 0.00 93 1011.9
20260510111908 51 342 0.0 0.0 0.00 0.00 0.00 93 1011.9
20260510111804 51 342 0.0 0.0 0.00 0.00 0.00 93 1011.8
20260510111658 50 342 0.0 0.0 0.00 0.00 0.00 93 1011.8
20260510111551 50 342 0.0 0.0 0.00 0.00 0.00 93 1011.7
20260510111448 50 342 0.0 0.0 0.00 0.00 0.00 93 1011.7
20260510111340 50 342 0.0 0.0 0.00 0.00 0.00 93 1011.7
20260510111235 50 342 0.0 0.0 0.00 0.00 0.00 93 1011.7
20260510110912 50 342 0.0 0.0 0.00 0.00 0.00 93 1011.7
20260510110542 50 342 0.0 0.0 0.00 0.00 0.00 93 1011.6
20260510110438 50 342 0.0 0.0 0.00 0.00 0.00 93 1011.6
20260510110335 50 342 0.0 0.0 0.00 0.00 0.00 93 1011.6
20260510110232 50 342 0.0 0.0 0.00 0.00 0.00 93 1011.6
20260510110130 50 342 0.0 0.0 0.00 0.00 0.00 93 1011.6
20260510110022 50 342 0.0 0.0 0.00 0.00 0.00 92 1011.6
20260510105700 50 342 0.0 0.0 0.00 0.00 0.00 92 1011.5
20260510105554 50 342 0.0 0.0 0.00 0.00 0.00 92 1011.5
20260510105448 50 342 0.0 0.0 0.00 0.00 0.00 92 1011.5
20260510105342 50 342 0.0 0.0 0.00 0.00 0.00 92 1011.5
20260510105235 50 342 0.0 0.0 0.00 0.00 0.00 92 1011.5
20260510105129 50 342 0.0 0.0 0.00 0.00 0.00 92 1011.4
20260510104548 50 342 0.0 0.0 0.00 0.00 0.00 92 1011.3
20260510104441 50 342 0.0 0.0 0.00 0.00 0.00 92 1011.3
20260510104339 50 342 0.0 0.0 0.00 0.00 0.00 92 1011.3
20260510104233 50 342 0.0 0.0 0.00 0.00 0.00 92 1011.2
20260510104128 50 342 0.0 0.0 0.00 0.00 0.00 92 1011.2
20260510104021 50 342 0.0 0.0 0.00 0.00 0.00 92 1011.2
20260510103917 50 342 0.0 0.0 0.00 0.00 0.00 92 1011.2
20260510103813 50 342 0.0 0.0 0.00 0.00 0.00 92 1011.2
20260510103709 50 342 0.0 0.0 0.00 0.00 0.00 92 1011.2
20260510103604 50 342 0.0 0.0 0.00 0.00 0.00 92 1011.2
20260510103459 50 342 0.0 0.0 0.00 0.00 0.00 92 1011.2
20260510103135 50 342 0.0 0.0 0.00 0.00 0.00 92 1011.2
20260510103029 50 342 0.0 0.0 0.00 0.00 0.00 92 1011.2
20260510102926 50 342 0.0 0.0 0.00 0.00 0.00 92 1011.2
20260510102822 50 342 0.0 0.0 0.00 0.00 0.00 92 1011.2
20260510102715 50 342 0.0 0.0 0.00 0.00 0.00 92 1011.1
20260510102609 50 342 0.0 0.0 0.00 0.00 0.00 92 1011.1
20260510102245 50 342 0.0 0.0 0.00 0.00 0.00 92 1011.1
20260510102140 50 342 0.0 0.0 0.00 0.00 0.00 92 1011.1
20260510102033 50 342 0.0 0.0 0.00 0.00 0.00 92 1011.0
20260510101710 50 342 0.0 0.0 0.00 0.00 0.00 92 1011.0
20260510101343 50 342 0.0 0.0 0.00 0.00 0.00 92 1011.0
20260510101241 50 342 0.0 0.0 0.00 0.00 0.00 92 1010.9
20260510100916 50 342 0.0 0.0 0.00 0.00 0.00 92 1010.9
20260510100331 50 342 0.0 0.0 0.00 0.00 0.00 92 1010.8
20260510100224 50 342 0.0 0.0 0.00 0.00 0.00 92 1010.8
20260510100120 50 342 0.0 0.0 0.00 0.00 0.00 92 1010.8
20260510095753 50 342 0.0 0.0 0.00 0.00 0.00 92 1010.9
20260510095424 50 342 0.0 0.0 0.00 0.00 0.00 92 1010.8
20260510095323 50 342 0.0 0.0 0.00 0.00 0.00 92 1010.8
20260510094738 50 342 0.0 0.0 0.00 0.00 0.00 92 1010.8
20260510094414 50 342 0.0 0.0 0.00 0.00 0.00 92 1010.8
20260510094054 50 342 0.0 0.0 0.00 0.00 0.00 92 1010.8
20260510093950 50 342 0.0 0.0 0.00 0.00 0.00 92 1010.8
20260510093846 50 342 0.0 0.0 0.00 0.00 0.00 92 1010.9
20260510093743 50 342 0.0 0.0 0.00 0.00 0.00 92 1010.8
20260510093638 50 342 0.0 0.0 0.00 0.00 0.00 92 1010.9
20260510093533 50 342 0.0 0.0 0.00 0.00 0.00 92 1010.8
20260510093209 50 342 0.0 1.0 0.00 0.00 0.00 92 1010.8
20260510093104 50 342 0.0 0.0 0.00 0.00 0.00 92 1010.9
20260510093002 50 342 0.0 0.0 0.00 0.00 0.00 92 1010.9
20260510092856 50 342 0.0 0.0 0.00 0.00 0.00 92 1010.9
20260510092751 50 342 0.0 0.0 0.00 0.00 0.00 92 1010.9
20260510092645 50 342 0.0 0.0 0.00 0.00 0.00 92 1010.9
20260510092539 50 342 0.0 0.0 0.00 0.00 0.00 92 1010.9
20260510092432 50 342 0.0 0.0 0.00 0.00 0.00 92 1010.9
20260510092324 50 342 0.0 0.0 0.00 0.00 0.00 92 1010.9
20260510092218 50 342 0.0 0.0 0.00 0.00 0.00 92 1010.9
20260510091851 50 342 0.0 1.0 0.00 0.00 0.00 91 1010.8
20260510091744 50 342 0.0 1.0 0.00 0.00 0.00 91 1010.8
20260510091639 50 342 0.0 1.0 0.00 0.00 0.00 91 1010.9
20260510091532 50 342 0.0 0.0 0.00 0.00 0.00 91 1010.9
20260510091428 50 342 0.0 0.0 0.00 0.00 0.00 91 1010.9
20260510091325 50 342 0.0 0.0 0.00 0.00 0.00 91 1010.9
20260510091218 50 342 0.0 0.0 0.00 0.00 0.00 91 1010.9
20260510090851 50 342 0.0 0.0 0.00 0.00 0.00 91 1010.9
20260510090527 50 342 0.0 0.0 0.00 0.00 0.00 91 1010.7
20260510090423 50 342 0.0 0.0 0.00 0.00 0.00 91 1010.7
20260510090319 50 342 0.0 0.0 0.00 0.00 0.00 91 1010.7
20260510085730 50 342 0.0 1.0 0.00 0.00 0.00 91 1010.5
20260510085149 51 342 0.0 1.0 0.00 0.00 0.00 91 1010.7
20260510085043 50 342 0.0 1.0 0.00 0.00 0.00 91 1010.7
20260510084936 51 342 0.0 1.0 0.00 0.00 0.00 91 1010.7
20260510084829 51 342 0.0 1.0 0.00 0.00 0.00 91 1010.7
20260510084722 51 342 0.0 1.0 0.00 0.00 0.00 91 1010.7
20260510084616 51 342 0.0 1.0 0.00 0.00 0.00 91 1010.7
20260510084513 51 342 0.0 1.0 0.00 0.00 0.00 91 1010.6
20260510084405 51 342 0.0 1.0 0.00 0.00 0.00 91 1010.5
20260510084258 51 342 0.0 1.0 0.00 0.00 0.00 91 1010.5
20260510084150 51 342 0.0 0.0 0.00 0.00 0.00 91 1010.5
20260510083827 51 252 0.0 0.0 0.00 0.00 0.00 91 1010.4
20260510083721 51 252 0.0 0.0 0.00 0.00 0.00 91 1010.4
20260510083617 51 252 0.0 0.0 0.00 0.00 0.00 91 1010.4
20260510083510 51 252 0.0 0.0 0.00 0.00 0.00 91 1010.4
20260510083403 51 252 0.0 0.0 0.00 0.00 0.00 91 1010.4
20260510083301 51 252 0.0 0.0 0.00 0.00 0.00 91 1010.4
20260510083155 51 252 0.0 0.0 0.00 0.00 0.00 91 1010.4
20260510082828 51 252 0.0 0.0 0.00 0.00 0.00 91 1010.3
20260510082722 51 252 0.0 0.0 0.00 0.00 0.00 91 1010.3
20260510082620 51 252 0.0 0.0 0.00 0.00 0.00 91 1010.3
20260510082257 51 252 0.0 0.0 0.00 0.00 0.00 91 1010.4
20260510082152 51 252 0.0 0.0 0.00 0.00 0.00 91 1010.4
20260510082047 51 252 0.0 0.0 0.00 0.00 0.00 91 1010.4
20260510081941 51 252 0.0 0.0 0.00 0.00 0.00 91 1010.4
20260510081833 51 252 0.0 0.0 0.00 0.00 0.00 91 1010.3
20260510081731 51 252 0.0 0.0 0.00 0.00 0.00 91 1010.4
20260510081627 51 252 0.0 0.0 0.00 0.00 0.00 91 1010.3
20260510081525 51 252 0.0 0.0 0.00 0.00 0.00 91 1010.4
20260510081421 51 252 0.0 0.0 0.00 0.00 0.00 91 1010.3
20260510081315 51 252 0.0 0.0 0.00 0.00 0.00 91 1010.4
20260510081209 51 252 0.0 0.0 0.00 0.00 0.00 91 1010.3
20260510081107 51 252 0.0 0.0 0.00 0.00 0.00 90 1010.3
20260510080959 51 252 0.0 0.0 0.00 0.00 0.00 90 1010.3
20260510080852 51 252 0.0 0.0 0.00 0.00 0.00 90 1010.2
20260510080748 51 220 0.0 0.0 0.00 0.00 0.00 90 1010.2
20260510080643 52 220 0.0 0.0 0.00 0.00 0.00 90 1010.2
20260510080538 52 220 0.0 0.0 0.00 0.00 0.00 90 1010.2
20260510080432 52 220 0.0 0.0 0.00 0.00 0.00 90 1010.2
20260510080324 52 219 0.0 0.0 0.00 0.00 0.00 90 1010.2
20260510075733 52 160 0.0 0.0 0.00 0.00 0.00 90 1010.2
20260510075628 52 160 0.0 0.0 0.00 0.00 0.00 90 1010.2
20260510075525 52 160 0.0 0.0 0.00 0.00 0.00 90 1010.1
20260510075420 52 160 0.0 0.0 0.00 0.00 0.00 90 1010.1
20260510075316 52 160 0.0 0.0 0.00 0.00 0.00 90 1010.1
20260510074952 52 160 0.0 0.0 0.00 0.00 0.00 90 1010.1
20260510074626 52 160 0.0 0.0 0.00 0.00 0.00 90 1010.1
20260510074520 52 160 0.0 0.0 0.00 0.00 0.00 90 1010.1
20260510074413 52 160 0.0 0.0 0.00 0.00 0.00 90 1010.1
20260510074307 52 160 0.0 0.0 0.00 0.00 0.00 90 1010.0
20260510074203 52 160 0.0 0.0 0.00 0.00 0.00 90 1010.0
20260510074055 52 160 0.0 0.0 0.00 0.00 0.00 90 1010.0
20260510073949 52 160 0.0 0.0 0.00 0.00 0.00 90 1010.0
20260510073842 52 160 0.0 0.0 0.00 0.00 0.00 90 1010.0
20260510073737 52 160 0.0 0.0 0.00 0.00 0.00 90 1009.9
20260510073633 52 160 0.0 0.0 0.00 0.00 0.00 90 1010.0
20260510073531 52 160 0.0 0.0 0.00 0.00 0.00 90 1009.9
20260510073427 52 160 0.0 0.0 0.00 0.00 0.00 90 1009.9
20260510073325 52 160 0.0 0.0 0.00 0.00 0.00 90 1009.9
20260510073218 52 160 0.0 0.0 0.00 0.00 0.00 90 1009.9
20260510073111 52 160 0.0 0.0 0.00 0.00 0.00 90 1009.9
20260510073006 52 160 0.0 0.0 0.00 0.00 0.00 90 1009.8
20260510072902 52 160 0.0 0.0 0.00 0.00 0.00 90 1009.8
20260510072758 52 160 0.0 0.0 0.00 0.00 0.00 90 1009.8
20260510072656 52 160 0.0 0.0 0.00 0.00 0.00 90 1009.9
20260510072550 52 160 0.0 0.0 0.00 0.00 0.00 90 1009.9
20260510072445 52 160 0.0 0.0 0.00 0.00 0.00 90 1009.9
20260510072338 52 160 0.0 0.0 0.00 0.00 0.00 89 1009.9
20260510072233 52 160 0.0 0.0 0.00 0.00 0.00 90 1009.9
20260510072130 52 160 0.0 0.0 0.00 0.00 0.00 89 1009.9
20260510072027 52 160 0.0 0.0 0.00 0.00 0.00 89 1009.8
20260510071922 52 160 0.0 0.0 0.00 0.00 0.00 89 1009.8
20260510071817 52 160 0.0 0.0 0.00 0.00 0.00 89 1009.9
20260510071712 52 160 0.0 0.0 0.00 0.00 0.00 89 1009.8
20260510071607 52 160 0.0 0.0 0.00 0.00 0.00 89 1009.8
20260510071503 52 160 0.0 0.0 0.00 0.00 0.00 89 1009.8
20260510071358 52 160 0.0 0.0 0.00 0.00 0.00 89 1009.8
20260510071254 52 160 0.0 0.0 0.00 0.00 0.00 89 1009.8
20260510071147 52 160 0.0 2.0 0.00 0.00 0.00 89 1009.9
20260510071039 52 160 0.0 2.0 0.00 0.00 0.00 89 1009.9
20260510070932 52 160 0.0 2.0 0.00 0.00 0.00 89 1009.9
20260510070824 52 160 0.0 2.0 0.00 0.00 0.00 89 1009.9
20260510070718 52 160 0.0 2.0 0.00 0.00 0.00 89 1009.9
20260510070611 52 160 0.0 2.0 0.00 0.00 0.00 89 1009.9
20260510070507 52 160 0.0 2.0 0.00 0.00 0.00 89 1009.9
20260510070405 52 178 0.0 2.0 0.00 0.00 0.00 89 1009.9
20260510070301 52 259 0.0 2.0 0.00 0.00 0.00 89 1009.9
20260510070156 52 259 0.0 2.0 0.00 0.00 0.00 89 1009.8
20260510065606 53 295 0.0 0.0 0.00 0.00 0.00 88 1009.7
20260510065504 53 295 0.0 1.0 0.00 0.00 0.00 88 1009.7
20260510065402 53 295 0.0 1.0 0.00 0.00 0.00 88 1009.6
20260510065300 53 295 0.0 0.0 0.00 0.00 0.00 88 1009.6
20260510065155 53 295 0.0 0.0 0.00 0.00 0.00 88 1009.6
20260510065050 53 295 0.0 0.0 0.00 0.00 0.00 88 1009.5
20260510064942 53 295 0.0 0.0 0.00 0.00 0.00 88 1009.5
20260510064837 53 295 0.0 0.0 0.00 0.00 0.00 88 1009.5
20260510064733 53 295 0.0 0.0 0.00 0.00 0.00 88 1009.5
20260510064627 53 295 0.0 0.0 0.00 0.00 0.00 88 1009.4
20260510064305 53 295 0.0 0.0 0.00 0.00 0.00 88 1009.4
20260510064203 53 295 0.0 0.0 0.00 0.00 0.00 88 1009.4
20260510064058 53 295 0.0 0.0 0.00 0.00 0.00 88 1009.3
20260510063955 53 295 0.0 0.0 0.00 0.00 0.00 88 1009.3
20260510063850 53 286 0.0 0.0 0.00 0.00 0.00 87 1009.3
20260510063747 53 250 0.0 0.0 0.00 0.00 0.00 87 1009.2
20260510063645 53 250 0.0 0.0 0.00 0.00 0.00 87 1009.2
20260510063540 53 250 0.0 0.0 0.00 0.00 0.00 87 1009.2
20260510063435 53 250 0.0 0.0 0.00 0.00 0.00 87 1009.2
20260510063332 54 250 0.0 0.0 0.00 0.00 0.00 87 1009.3
20260510063226 54 250 0.0 0.0 0.00 0.00 0.00 86 1009.3
20260510062905 54 250 0.0 0.0 0.00 0.00 0.00 87 1009.3
20260510062803 54 250 0.0 0.0 0.00 0.00 0.00 87 1009.3
20260510062437 54 250 0.0 0.0 0.00 0.00 0.00 87 1009.3
20260510062333 54 250 0.0 0.0 0.00 0.00 0.00 87 1009.4
20260510062231 54 250 0.0 0.0 0.00 0.00 0.00 87 1009.4
20260510062128 54 250 0.0 0.0 0.00 0.00 0.00 87 1009.4
20260510062026 54 250 0.0 0.0 0.00 0.00 0.00 87 1009.4
20260510061923 54 250 0.0 0.0 0.00 0.00 0.00 87 1009.4
20260510061555 54 250 0.0 0.0 0.00 0.00 0.00 87 1009.4
20260510061452 54 250 0.0 0.0 0.00 0.00 0.00 87 1009.4
20260510061344 54 250 0.0 0.0 0.00 0.00 0.00 87 1009.4
20260510061236 54 250 0.0 0.0 0.00 0.00 0.00 87 1009.4
20260510061128 54 250 0.0 1.0 0.00 0.00 0.00 87 1009.4
20260510061021 54 250 0.0 1.0 0.00 0.00 0.00 87 1009.4
20260510060918 54 250 0.0 1.0 0.00 0.00 0.00 87 1009.4
20260510060812 54 250 0.0 1.0 0.00 0.00 0.00 87 1009.4
20260510060705 54 250 0.0 1.0 0.00 0.00 0.00 87 1009.4
20260510060601 54 250 0.0 1.0 0.00 0.00 0.00 87 1009.4
20260510060459 54 250 0.0 1.0 0.00 0.00 0.00 87 1009.3
20260510060353 54 250 0.0 1.0 0.00 0.00 0.00 87 1009.3
20260510060250 54 250 0.0 1.0 0.00 0.00 0.00 87 1009.3
20260510060145 54 250 0.0 1.0 0.00 0.00 0.00 87 1009.3
20260510060040 54 250 0.0 1.0 0.00 0.00 0.00 87 1009.3
20260510055936 54 250 0.0 1.0 0.00 0.00 0.00 87 1009.3
20260510055829 54 250 0.0 1.0 0.00 0.00 0.00 87 1009.3
20260510055725 54 250 0.0 1.0 0.00 0.00 0.00 87 1009.3
20260510055359 54 250 0.0 0.0 0.00 0.00 0.00 86 1009.2
20260510055253 54 250 0.0 0.0 0.00 0.00 0.00 86 1009.2
20260510055150 54 250 0.0 0.0 0.00 0.00 0.00 86 1009.3
20260510055046 54 250 0.0 0.0 0.00 0.00 0.00 86 1009.3
20260510054726 54 250 0.0 0.0 0.00 0.00 0.00 86 1009.3
20260510054621 54 250 0.0 0.0 0.00 0.00 0.00 86 1009.3
20260510054517 54 250 0.0 0.0 0.00 0.00 0.00 86 1009.3
20260510054412 54 250 0.0 0.0 0.00 0.00 0.00 86 1009.3
20260510054306 54 250 0.0 0.0 0.00 0.00 0.00 86 1009.3
20260510054202 54 250 0.0 0.0 0.00 0.00 0.00 86 1009.3
20260510054056 54 250 0.0 0.0 0.00 0.00 0.00 86 1009.3
20260510053950 54 250 0.0 0.0 0.00 0.00 0.00 86 1009.4
20260510053623 55 250 0.0 0.0 0.00 0.00 0.00 86 1009.3
20260510053520 55 250 0.0 0.0 0.00 0.00 0.00 86 1009.3
20260510053418 55 250 0.0 0.0 0.00 0.00 0.00 86 1009.4
20260510053053 55 250 0.0 0.0 0.00 0.00 0.00 85 1009.4
20260510052729 55 250 0.0 0.0 0.00 0.00 0.00 85 1009.4
20260510052626 55 250 0.0 0.0 0.00 0.00 0.00 85 1009.4
20260510052519 55 250 0.0 0.0 0.00 0.00 0.00 85 1009.4
20260510051929 55 250 0.0 0.0 0.00 0.00 0.00 85 1009.4
20260510051826 55 250 0.0 0.0 0.00 0.00 0.00 85 1009.4
20260510051501 55 250 0.0 0.0 0.00 0.00 0.00 84 1009.4
20260510051357 55 250 0.0 0.0 0.00 0.00 0.00 84 1009.4
20260510051253 55 250 0.0 0.0 0.00 0.00 0.00 84 1009.3
20260510051146 56 250 0.0 0.0 0.00 0.00 0.00 84 1009.4
20260510050822 56 250 0.0 0.0 0.00 0.00 0.00 84 1009.4
20260510050237 56 250 0.0 0.0 0.00 0.00 0.00 83 1009.4
20260510050133 56 250 0.0 0.0 0.00 0.00 0.00 83 1009.4
20260510045807 56 250 0.0 0.0 0.00 0.00 0.00 83 1009.4
20260510045702 56 250 0.0 0.0 0.00 0.00 0.00 83 1009.4
20260510045555 56 250 0.0 0.0 0.00 0.00 0.00 83 1009.4
20260510045011 56 250 0.0 0.0 0.00 0.00 0.00 83 1009.4
20260510044909 56 250 0.0 0.0 0.00 0.00 0.00 84 1009.4
20260510044322 57 250 0.0 0.0 0.00 0.00 0.00 83 1009.4
20260510044217 57 250 0.0 0.0 0.00 0.00 0.00 83 1009.5
20260510043856 57 250 0.0 0.0 0.00 0.00 0.00 83 1009.4
20260510043531 57 250 0.0 0.0 0.00 0.00 0.00 83 1009.4
20260510043427 57 250 0.0 0.0 0.00 0.00 0.00 83 1009.3
20260510043322 57 250 0.0 0.0 0.00 0.00 0.00 83 1009.4
20260510043215 57 250 0.0 0.0 0.00 0.00 0.00 84 1009.3
20260510043106 57 250 0.0 0.0 0.00 0.00 0.00 83 1009.3
20260510042959 57 250 0.0 0.0 0.00 0.00 0.00 83 1009.3
20260510042853 57 250 0.0 0.0 0.00 0.00 0.00 83 1009.3
20260510042530 57 250 0.0 0.0 0.00 0.00 0.00 83 1009.3
20260510042422 57 250 0.0 0.0 0.00 0.00 0.00 83 1009.3
20260510042314 57 250 0.0 0.0 0.00 0.00 0.00 83 1009.3
20260510042208 57 250 0.0 0.0 0.00 0.00 0.00 83 1009.3
20260510042104 57 250 0.0 0.0 0.00 0.00 0.00 83 1009.3
20260510042001 57 250 0.0 0.0 0.00 0.00 0.00 83 1009.3
20260510041634 57 250 0.0 0.0 0.00 0.00 0.00 83 1009.2
20260510041530 57 250 0.0 0.0 0.00 0.00 0.00 83 1009.2
20260510041424 58 250 0.0 0.0 0.00 0.00 0.00 83 1009.3
20260510041316 58 250 0.0 0.0 0.00 0.00 0.00 83 1009.2
20260510040953 58 250 0.0 1.0 0.00 0.00 0.00 83 1009.2
20260510040846 58 250 0.0 0.0 0.00 0.00 0.00 82 1009.2
20260510040739 58 250 0.0 0.0 0.00 0.00 0.00 82 1009.2
20260510040637 58 250 0.0 0.0 0.00 0.00 0.00 82 1009.1
20260510040312 58 250 0.0 0.0 0.00 0.00 0.00 81 1009.2
20260510035950 58 250 0.0 0.0 0.00 0.00 0.00 82 1009.2
20260510035629 58 250 0.0 0.0 0.00 0.00 0.00 81 1009.1
20260510035522 58 250 0.0 0.0 0.00 0.00 0.00 81 1009.1
20260510035418 58 250 0.0 0.0 0.00 0.00 0.00 81 1009.2
20260510035312 58 250 0.0 0.0 0.00 0.00 0.00 81 1009.1
20260510035206 58 250 0.0 0.0 0.00 0.00 0.00 81 1009.1
20260510035100 58 250 0.0 0.0 0.00 0.00 0.00 81 1009.1
20260510034957 58 250 0.0 0.0 0.00 0.00 0.00 81 1009.1
20260510034855 58 250 0.0 0.0 0.00 0.00 0.00 81 1009.1
20260510034752 58 250 0.0 0.0 0.00 0.00 0.00 81 1009.1
20260510034648 58 250 0.0 0.0 0.00 0.00 0.00 81 1009.1
20260510034541 58 250 0.0 0.0 0.00 0.00 0.00 81 1009.1
20260510034438 58 250 0.0 0.0 0.00 0.00 0.00 81 1009.2
20260510034115 58 250 0.0 0.0 0.00 0.00 0.00 81 1009.1
20260510034013 58 250 0.0 0.0 0.00 0.00 0.00 81 1009.1
20260510033909 58 250 0.0 0.0 0.00 0.00 0.00 81 1009.1
20260510033807 59 250 0.0 0.0 0.00 0.00 0.00 81 1009.1
20260510033702 59 250 0.0 0.0 0.00 0.00 0.00 81 1009.1
20260510033600 59 250 0.0 0.0 0.00 0.00 0.00 81 1009.1
20260510033456 59 250 0.0 0.0 0.00 0.00 0.00 81 1009.1
20260510033352 59 250 0.0 0.0 0.00 0.00 0.00 81 1009.1
20260510033244 59 250 0.0 0.0 0.00 0.00 0.00 81 1009.0
20260510033136 59 250 0.0 0.0 0.00 0.00 0.00 81 1009.0
20260510033028 59 250 0.0 0.0 0.00 0.00 0.00 81 1009.0
20260510032921 59 250 0.0 0.0 0.00 0.00 0.00 81 1009.0
20260510032817 59 250 0.0 0.0 0.00 0.00 0.00 81 1009.0
20260510032712 59 250 0.0 0.0 0.00 0.00 0.00 81 1009.0
20260510032610 59 250 0.0 0.0 0.00 0.00 0.00 80 1009.0
20260510032506 59 250 0.0 0.0 0.00 0.00 0.00 80 1009.0
20260510032359 59 250 0.0 0.0 0.00 0.00 0.00 80 1009.0
20260510032251 59 250 0.0 0.0 0.00 0.00 0.00 80 1009.0
20260510032147 59 250 0.0 0.0 0.00 0.00 0.00 79 1009.0
20260510032040 59 250 0.0 0.0 0.00 0.00 0.00 79 1009.0
20260510031938 59 250 0.0 0.0 0.00 0.00 0.00 79 1008.9
20260510031836 59 250 0.0 0.0 0.00 0.00 0.00 79 1009.0
20260510031731 59 250 0.0 0.0 0.00 0.00 0.00 79 1009.0
20260510031625 59 250 0.0 0.0 0.00 0.00 0.00 79 1009.0
20260510031520 59 250 0.0 0.0 0.00 0.00 0.00 79 1009.0
20260510031150 59 250 0.0 0.0 0.00 0.00 0.00 79 1009.0
20260510031044 59 250 0.0 0.0 0.00 0.00 0.00 79 1009.0
20260510030459 60 250 0.0 0.0 0.00 0.00 0.00 80 1009.1
20260510030355 60 250 0.0 0.0 0.00 0.00 0.00 79 1009.0
20260510030248 60 250 0.0 0.0 0.00 0.00 0.00 79 1009.0
20260510030146 60 250 0.0 0.0 0.00 0.00 0.00 78 1009.0
20260510030039 60 250 0.0 0.0 0.00 0.00 0.00 78 1009.0
20260510025936 60 250 0.0 0.0 0.00 0.00 0.00 78 1009.0
20260510025834 60 250 0.0 0.0 0.00 0.00 0.00 78 1009.0
20260510025727 60 250 0.0 0.0 0.00 0.00 0.00 78 1009.0
20260510025622 60 250 0.0 0.0 0.00 0.00 0.00 78 1009.0
20260510025516 60 250 0.0 0.0 0.00 0.00 0.00 78 1009.0
20260510025149 60 250 0.0 0.0 0.00 0.00 0.00 78 1009.0
20260510025043 60 250 0.0 0.0 0.00 0.00 0.00 78 1009.0
20260510024719 60 250 0.0 0.0 0.00 0.00 0.00 78 1009.0
20260510024613 60 250 0.0 0.0 0.00 0.00 0.00 78 1009.0
20260510024509 60 250 0.0 0.0 0.00 0.00 0.00 79 1009.0
20260510024404 60 250 0.0 0.0 0.00 0.00 0.00 78 1008.9
20260510024300 60 250 0.0 0.0 0.00 0.00 0.00 78 1008.9
20260510024156 60 250 0.0 0.0 0.00 0.00 0.00 78 1008.9
20260510024053 60 250 0.0 0.0 0.00 0.00 0.00 78 1008.9
20260510023730 60 250 0.0 0.0 0.00 0.00 0.00 78 1008.9
20260510023622 60 250 0.0 0.0 0.00 0.00 0.00 78 1008.9
20260510023519 60 250 0.0 0.0 0.00 0.00 0.00 78 1008.9
20260510023414 60 250 0.0 0.0 0.00 0.00 0.00 78 1008.8
20260510023308 60 250 0.0 0.0 0.00 0.00 0.00 78 1008.8
20260510023202 61 250 0.0 0.0 0.00 0.00 0.00 78 1008.9
20260510022838 61 250 0.0 0.0 0.00 0.00 0.00 78 1008.8
20260510022730 61 250 0.0 0.0 0.00 0.00 0.00 78 1008.8
20260510022402 61 250 0.0 0.0 0.00 0.00 0.00 78 1008.8
20260510022259 61 250 0.0 0.0 0.00 0.00 0.00 77 1008.7
20260510022157 61 250 0.0 0.0 0.00 0.00 0.00 77 1008.7
20260510022050 61 250 0.0 0.0 0.00 0.00 0.00 77 1008.7
20260510021945 61 250 0.0 0.0 0.00 0.00 0.00 77 1008.7
20260510021840 61 250 0.0 0.0 0.00 0.00 0.00 77 1008.7
20260510021737 61 250 0.0 0.0 0.00 0.00 0.00 77 1008.7
20260510021634 61 250 0.0 0.0 0.00 0.00 0.00 77 1008.7
20260510021532 61 250 0.0 0.0 0.00 0.00 0.00 77 1008.7
20260510021208 61 250 0.0 0.0 0.00 0.00 0.00 77 1008.7
20260510021101 61 250 0.0 0.0 0.00 0.00 0.00 77 1008.7
20260510020954 61 250 0.0 0.0 0.00 0.00 0.00 77 1008.7
20260510020632 61 250 0.0 0.0 0.00 0.00 0.00 77 1008.6
20260510020524 61 250 0.0 0.0 0.00 0.00 0.00 77 1008.6
20260510020159 62 250 0.0 1.0 0.00 0.00 0.00 76 1008.5
20260510020053 62 250 0.0 1.0 0.00 0.00 0.00 76 1008.5
20260510015946 62 250 0.0 0.0 0.00 0.00 0.00 75 1008.5
20260510015844 62 250 0.0 0.0 0.00 0.00 0.00 75 1008.5
20260510015742 62 250 0.0 0.0 0.00 0.00 0.00 75 1008.5
20260510015638 62 250 0.0 0.0 0.00 0.00 0.00 75 1008.4
20260510015534 62 250 0.0 0.0 0.00 0.00 0.00 75 1008.4
20260510015432 62 250 0.0 0.0 0.00 0.00 0.00 75 1008.4
20260510015107 62 250 0.0 0.0 0.00 0.00 0.00 73 1008.3
20260510015004 62 250 0.0 0.0 0.00 0.00 0.00 73 1008.4
20260510014638 62 250 0.0 0.0 0.00 0.00 0.00 73 1008.3
20260510014532 62 250 0.0 0.0 0.00 0.00 0.00 73 1008.3
20260510014425 62 250 0.0 0.0 0.00 0.00 0.00 73 1008.3
20260510014319 62 250 0.0 0.0 0.00 0.00 0.00 73 1008.3
20260510014212 62 250 0.0 0.0 0.00 0.00 0.00 73 1008.3
20260510014106 62 250 0.0 0.0 0.00 0.00 0.00 74 1008.2
20260510014002 62 250 0.0 0.0 0.00 0.00 0.00 74 1008.2
20260510013858 62 250 0.0 0.0 0.00 0.00 0.00 74 1008.2
20260510013534 63 250 0.0 0.0 0.00 0.00 0.00 73 1008.3
20260510013431 63 250 0.0 0.0 0.00 0.00 0.00 73 1008.3
20260510013108 63 250 0.0 0.0 0.00 0.00 0.00 74 1008.2
20260510013004 63 250 0.0 0.0 0.00 0.00 0.00 73 1008.2
20260510012859 63 250 0.0 0.0 0.00 0.00 0.00 73 1008.2
20260510012752 63 250 0.0 0.0 0.00 0.00 0.00 73 1008.1
20260510012648 63 250 0.0 0.0 0.00 0.00 0.00 73 1008.1
20260510012544 63 250 0.0 0.0 0.00 0.00 0.00 73 1008.0
20260510012440 63 250 0.0 0.0 0.00 0.00 0.00 73 1008.1
20260510012336 63 250 0.0 0.0 0.00 0.00 0.00 73 1008.0
20260510012230 63 250 0.0 0.0 0.00 0.00 0.00 73 1008.0
20260510012121 63 250 0.0 0.0 0.00 0.00 0.00 73 1007.9
20260510012015 64 250 0.0 0.0 0.00 0.00 0.00 73 1007.9
20260510011908 64 213 0.0 0.0 0.00 0.00 0.00 73 1007.9
20260510011803 64 213 0.0 0.0 0.00 0.00 0.00 73 1007.9
20260510011656 64 213 0.0 0.0 0.00 0.00 0.00 72 1007.9
20260510011554 64 213 0.0 0.0 0.00 0.00 0.00 72 1007.9
20260510011447 64 213 0.0 0.0 0.00 0.00 0.00 71 1007.8
20260510011343 64 213 0.0 0.0 0.00 0.00 0.00 70 1007.9
20260510010753 65 213 0.0 0.0 0.00 0.00 0.00 68 1007.7
20260510010649 65 213 0.0 0.0 0.00 0.00 0.00 69 1007.6
20260510010544 65 213 0.0 0.0 0.00 0.00 0.00 69 1007.7
20260510010439 65 213 0.0 0.0 0.00 0.00 0.00 69 1007.6
20260510010116 65 213 0.0 0.0 0.00 0.00 0.00 69 1007.5
20260510010011 65 213 0.0 0.0 0.00 0.00 0.00 69 1007.5
20260510005908 65 213 0.0 0.0 0.00 0.00 0.00 70 1007.5
20260510005805 65 213 0.0 0.0 0.00 0.00 0.00 70 1007.5
20260510005658 65 213 0.0 0.0 0.00 0.00 0.00 70 1007.5
20260510005552 65 213 0.0 0.0 0.00 0.00 0.00 69 1007.5
20260510005223 66 213 0.0 0.0 0.00 0.00 0.00 68 1007.5
20260510005118 66 213 0.0 0.0 0.00 0.00 0.00 68 1007.5
20260510005014 66 213 0.0 0.0 0.00 0.00 0.00 67 1007.5
20260510004907 66 213 0.0 0.0 0.00 0.00 0.00 67 1007.4
20260510004805 66 213 0.0 0.0 0.00 0.00 0.00 67 1007.4
20260510004441 66 213 0.0 0.0 0.00 0.00 0.00 66 1007.4
20260510004337 66 213 0.0 0.0 0.00 0.00 0.00 66 1007.4
20260510004011 66 213 0.0 0.0 0.00 0.00 0.00 65 1007.3
20260510003906 66 213 0.0 0.0 0.00 0.00 0.00 66 1007.3
20260510003802 66 213 0.0 0.0 0.00 0.00 0.00 66 1007.3
20260510003700 66 213 0.0 0.0 0.00 0.00 0.00 66 1007.3
20260510003555 66 213 0.0 0.0 0.00 0.00 0.00 67 1007.3
20260510003452 66 213 0.0 0.0 0.00 0.00 0.00 66 1007.3
20260510003349 67 213 0.0 0.0 0.00 0.00 0.00 66 1007.3
20260510003242 67 213 0.0 0.0 0.00 0.00 0.00 65 1007.3
20260510003137 67 213 0.0 0.0 0.00 0.00 0.00 66 1007.3
20260510002812 67 213 0.0 0.0 0.00 0.00 0.00 65 1007.3
20260510002707 67 213 0.0 0.0 0.00 0.00 0.00 65 1007.3
20260510002601 67 213 0.0 0.0 0.00 0.00 0.00 65 1007.3
20260510002456 67 213 0.0 0.0 0.00 0.00 0.00 65 1007.3
20260510002349 67 213 0.0 0.0 0.00 0.00 0.00 65 1007.3
20260510002241 67 213 0.0 0.0 0.00 0.00 0.00 65 1007.3
20260510002133 67 213 0.0 0.0 0.00 0.00 0.00 65 1007.3
20260510002028 67 213 0.0 0.0 0.00 0.00 0.00 65 1007.3
20260510001923 67 213 0.0 0.0 0.00 0.00 0.00 65 1007.3
20260510001818 67 213 0.0 0.0 0.00 0.00 0.00 64 1007.3
20260510001711 67 213 0.0 0.0 0.00 0.00 0.00 65 1007.3
20260510001125 68 213 0.0 0.0 0.00 0.00 0.00 65 1007.2
20260510001017 68 213 0.0 0.0 0.00 0.00 0.00 65 1007.2
20260510000651 68 213 0.0 0.0 0.00 0.00 0.00 65 1007.2
20260510000545 68 213 0.0 0.0 0.00 0.00 0.00 65 1007.2
20260510000440 68 213 0.0 0.0 0.00 0.00 0.00 63 1007.2
20260510000333 68 213 0.0 0.0 0.00 0.00 0.00 63 1007.2
20260510000226 68 213 0.0 0.0 0.00 0.00 0.00 63 1007.2
20260510000122 68 213 0.0 0.0 0.00 0.00 0.00 62 1007.2
20260510000017 68 213 0.0 0.0 0.00 0.00 0.00 62 1007.1
20260509235914 68 213 0.0 0.0 0.00 0.00 0.00 62 1007.1
20260509235807 68 213 0.0 0.0 0.00 0.00 0.00 62 1007.1
20260509235444 68 213 0.0 0.0 0.00 0.00 0.00 62 1007.1
20260509234638 69 213 0.0 0.0 0.00 0.00 0.00 62 1007.0
20260509234536 69 213 0.0 0.0 0.00 0.00 0.00 62 1007.0
20260509234430 69 213 0.0 0.0 0.00 0.00 0.00 62 1007.0
20260509234324 69 213 0.0 0.0 0.00 0.00 0.00 62 1007.0
20260509234218 69 213 0.0 0.0 0.00 0.00 0.00 62 1007.0
20260509234113 69 213 0.0 0.0 0.00 0.00 0.00 62 1007.1
20260509234007 69 213 0.0 0.0 0.00 0.00 0.00 62 1007.1
20260509233902 69 213 0.0 0.0 0.00 0.00 0.00 61 1007.0
20260509233757 69 213 0.0 0.0 0.00 0.00 0.00 61 1007.0
20260509233655 69 213 0.0 0.0 0.00 0.00 0.00 60 1007.0
20260509233548 69 213 0.0 0.0 0.00 0.00 0.00 60 1007.0
20260509233441 69 213 0.0 0.0 0.00 0.00 0.00 61 1007.0
20260509233335 69 213 0.0 0.0 0.00 0.00 0.00 62 1007.0
20260509233233 69 213 0.0 0.0 0.00 0.00 0.00 62 1007.0
20260509233130 69 213 0.0 0.0 0.00 0.00 0.00 62 1007.0
20260509233024 69 213 0.0 0.0 0.00 0.00 0.00 62 1006.9
20260509232922 69 213 0.0 0.0 0.00 0.00 0.00 62 1006.9
20260509232818 69 213 0.0 0.0 0.00 0.00 0.00 62 1006.9
20260509232714 69 213 0.0 0.0 0.00 0.00 0.00 63 1006.9
20260509232611 69 213 0.0 0.0 0.00 0.00 0.00 61 1006.9
20260509232508 69 213 0.0 0.0 0.00 0.00 0.00 60 1006.9
20260509232406 69 213 0.0 0.0 0.00 0.00 0.00 61 1006.8
20260509232306 69 213 0.0 0.0 0.00 0.00 0.00 61 1006.8
20260509232158 70 213 0.0 0.0 0.00 0.00 0.00 61 1006.8
20260509232052 70 213 0.0 0.0 0.00 0.00 0.00 61 1006.8
20260509231949 70 213 0.0 0.0 0.00 0.00 0.00 61 1006.9
20260509231842 70 213 0.0 0.0 0.00 0.00 0.00 61 1006.8
20260509231739 70 213 0.0 0.0 0.00 0.00 0.00 60 1006.9
20260509231633 70 213 0.0 0.0 0.00 0.00 0.00 61 1006.9
20260509231529 70 213 0.0 0.0 0.00 0.00 0.00 61 1006.9
20260509231425 70 213 0.0 0.0 0.00 0.00 0.00 61 1006.9
20260509231106 70 213 0.0 0.0 0.00 0.00 0.00 62 1006.9
20260509231003 70 213 0.0 0.0 0.00 0.00 0.00 62 1007.0
20260509230856 70 213 0.0 0.0 0.00 0.00 0.00 62 1006.9
20260509230750 70 213 0.0 0.0 0.00 0.00 0.00 62 1006.9
20260509230646 70 213 0.0 0.0 0.00 0.00 0.00 62 1006.9
20260509230541 70 213 0.0 0.0 0.00 0.00 0.00 63 1006.9
20260509230436 70 213 0.0 0.0 0.00 0.00 0.00 63 1006.9
20260509230112 70 213 0.0 0.0 0.00 0.00 0.00 62 1006.9
20260509230008 70 213 0.0 0.0 0.00 0.00 0.00 62 1006.9
20260509225904 70 213 0.0 0.0 0.00 0.00 0.00 63 1006.9
20260509225801 70 213 0.0 0.0 0.00 0.00 0.00 62 1006.9
20260509225655 70 213 0.0 0.0 0.00 0.00 0.00 62 1006.9
20260509225547 70 213 0.0 0.0 0.00 0.00 0.00 63 1006.9
20260509225444 70 213 0.0 0.0 0.00 0.00 0.00 63 1006.9
20260509225336 70 213 0.0 0.0 0.00 0.00 0.00 62 1006.9
20260509225233 70 213 0.0 0.0 0.00 0.00 0.00 62 1006.9
20260509225126 70 213 0.0 0.0 0.00 0.00 0.00 62 1006.9
20260509225018 70 213 0.0 0.0 0.00 0.00 0.00 63 1006.9
20260509224913 70 213 0.0 0.0 0.00 0.00 0.00 63 1006.9
20260509224543 71 213 0.0 0.0 0.00 0.00 0.00 63 1006.9
20260509224440 71 213 0.0 0.0 0.00 0.00 0.00 63 1006.9
20260509224333 71 213 0.0 0.0 0.00 0.00 0.00 63 1006.9
20260509224006 71 213 0.0 0.0 0.00 0.00 0.00 63 1006.9
20260509223639 71 213 0.0 0.0 0.00 0.00 0.00 63 1006.9
20260509223536 71 213 0.0 0.0 0.00 0.00 0.00 63 1006.9
20260509223433 71 213 0.0 0.0 0.00 0.00 0.00 63 1006.9
20260509223329 71 213 0.0 0.0 0.00 0.00 0.00 63 1007.0
20260509223227 71 213 0.0 0.0 0.00 0.00 0.00 63 1007.0
20260509223125 71 213 0.0 0.0 0.00 0.00 0.00 63 1007.0
20260509222802 71 213 0.0 0.0 0.00 0.00 0.00 63 1007.0
20260509222700 71 213 0.0 0.0 0.00 0.00 0.00 63 1007.0
20260509222554 71 213 0.0 0.0 0.00 0.00 0.00 63 1007.0
20260509222451 71 213 0.0 0.0 0.00 0.00 0.00 62 1007.0
20260509222349 71 213 0.0 0.0 0.00 0.00 0.00 62 1007.0
20260509221809 71 213 0.0 0.0 0.00 0.00 0.00 62 1007.0
20260509221223 71 213 0.0 0.0 0.00 0.00 0.00 61 1007.0
20260509220858 71 213 0.0 0.0 0.00 0.00 0.00 59 1007.0
20260509220754 71 213 0.0 0.0 0.00 0.00 0.00 59 1007.0
20260509220647 72 213 0.0 0.0 0.00 0.00 0.00 58 1007.0
20260509220543 71 213 0.0 0.0 0.00 0.00 0.00 58 1007.0
20260509220436 72 213 0.0 0.0 0.00 0.00 0.00 58 1007.0
20260509220333 72 213 0.0 0.0 0.00 0.00 0.00 58 1007.0
20260509220227 72 213 0.0 0.0 0.00 0.00 0.00 57 1007.0
20260509220122 72 213 0.0 0.0 0.00 0.00 0.00 57 1007.0
20260509220016 72 213 0.0 0.0 0.00 0.00 0.00 57 1007.0
20260509215912 72 213 0.0 0.0 0.00 0.00 0.00 57 1007.0
20260509215808 72 213 0.0 0.0 0.00 0.00 0.00 57 1007.1
20260509215703 72 213 0.0 0.0 0.00 0.00 0.00 57 1007.1
20260509215338 72 213 0.0 0.0 0.00 0.00 0.00 57 1007.0
20260509215231 72 213 0.0 0.0 0.00 0.00 0.00 57 1007.0
20260509215125 72 213 0.0 0.0 0.00 0.00 0.00 57 1007.0
20260509215021 72 213 0.0 0.0 0.00 0.00 0.00 57 1007.0
20260509214919 72 213 0.0 0.0 0.00 0.00 0.00 57 1007.0
20260509214340 72 213 0.0 0.0 0.00 0.00 0.00 56 1007.0
20260509214234 72 213 0.0 0.0 0.00 0.00 0.00 56 1007.0
20260509214131 72 213 0.0 0.0 0.00 0.00 0.00 56 1006.9
20260509214023 72 213 0.0 0.0 0.00 0.00 0.00 56 1006.9
20260509213916 72 213 0.0 1.0 0.00 0.00 0.00 55 1006.9
20260509213810 72 213 0.0 1.0 0.00 0.00 0.00 55 1006.9
20260509213705 72 213 0.0 1.0 0.00 0.00 0.00 55 1006.9
20260509213600 72 213 0.0 1.0 0.00 0.00 0.00 54 1006.9
20260509213456 72 207 0.0 1.0 0.00 0.00 0.00 55 1006.9
20260509213351 72 332 0.0 0.0 0.00 0.00 0.00 55 1006.9
20260509213247 72 332 0.0 0.0 0.00 0.00 0.00 55 1006.9
20260509213142 72 332 0.0 0.0 0.00 0.00 0.00 55 1006.8
20260509213036 72 332 0.0 0.0 0.00 0.00 0.00 55 1006.8
20260509212935 72 332 0.0 0.0 0.00 0.00 0.00 56 1006.9
20260509212831 72 332 0.0 0.0 0.00 0.00 0.00 56 1006.9
20260509212726 72 332 0.0 0.0 0.00 0.00 0.00 56 1006.9
20260509212622 72 332 0.0 0.0 0.00 0.00 0.00 56 1006.8
20260509212300 73 332 0.0 0.0 0.00 0.00 0.00 54 1006.8
20260509212154 73 332 0.0 0.0 0.00 0.00 0.00 54 1006.8
20260509212048 73 332 0.0 0.0 0.00 0.00 0.00 54 1006.8
20260509211944 73 332 0.0 0.0 0.00 0.00 0.00 53 1006.8
20260509211838 73 332 0.0 0.0 0.00 0.00 0.00 54 1006.8
20260509211733 73 332 0.0 1.0 0.00 0.00 0.00 54 1006.8
20260509211408 73 332 0.0 6.0 0.00 0.00 0.00 51 1006.8
20260509211300 73 332 0.0 6.0 0.00 0.00 0.00 51 1006.8
20260509211152 73 273 0.0 6.0 0.00 0.00 0.00 53 1006.8
20260509211048 73 273 0.0 6.0 0.00 0.00 0.00 52 1006.8
20260509210942 73 280 0.0 6.0 0.00 0.00 0.00 52 1006.7
20260509210837 73 21 0.0 6.0 0.00 0.00 0.00 50 1006.8
20260509210733 73 225 1.0 6.0 0.00 0.00 0.00 50 1006.8
20260509210631 73 227 1.0 6.0 0.00 0.00 0.00 55 1006.7
20260509210525 73 227 1.0 6.0 0.00 0.00 0.00 55 1006.7
20260509210419 73 227 1.0 6.0 0.00 0.00 0.00 53 1006.8
20260509210316 73 178 0.0 6.0 0.00 0.00 0.00 53 1006.8
20260509210212 73 117 0.0 6.0 0.00 0.00 0.00 53 1006.8
20260509210105 73 270 0.0 6.0 0.00 0.00 0.00 51 1006.7
20260509210000 73 183 0.0 6.0 0.00 0.00 0.00 51 1006.8
20260509205857 73 242 0.0 6.0 0.00 0.00 0.00 50 1006.8
20260509205753 73 231 0.0 6.0 0.00 0.00 0.00 51 1006.8
20260509205650 73 284 0.0 1.0 0.00 0.00 0.00 51 1006.8
20260509205546 73 218 0.0 1.0 0.00 0.00 0.00 54 1006.8
20260509205442 73 234 0.0 0.0 0.00 0.00 0.00 53 1006.8
20260509205338 73 223 0.0 0.0 0.00 0.00 0.00 54 1006.8
20260509205231 73 223 0.0 2.0 0.00 0.00 0.00 54 1006.8
20260509205124 73 335 0.0 2.0 0.00 0.00 0.00 53 1006.8
20260509204758 73 225 0.0 5.0 0.00 0.00 0.00 54 1006.7
20260509204651 73 225 0.0 5.0 0.00 0.00 0.00 53 1006.7
20260509204548 73 292 0.0 5.0 0.00 0.00 0.00 53 1006.7
20260509204441 73 200 0.0 5.0 0.00 0.00 0.00 53 1006.7
20260509204336 73 200 1.0 5.0 0.00 0.00 0.00 52 1006.8
20260509204013 73 36 1.0 5.0 0.00 0.00 0.00 51 1006.6
20260509203653 73 23 1.0 5.0 0.00 0.00 0.00 53 1006.7
20260509203548 73 335 1.0 5.0 0.00 0.00 0.00 51 1006.8
20260509203440 73 243 1.0 5.0 0.00 0.00 0.00 50 1006.7
20260509203115 73 296 0.0 5.0 0.00 0.00 0.00 51 1006.8
20260509203012 73 148 0.0 5.0 0.00 0.00 0.00 53 1006.8
20260509202428 73 237 0.0 8.0 0.00 0.00 0.00 53 1006.7
20260509202322 73 106 0.0 8.0 0.00 0.00 0.00 52 1006.6
20260509202218 73 269 0.0 8.0 0.00 0.00 0.00 53 1006.7
20260509202112 73 80 0.0 8.0 0.00 0.00 0.00 52 1006.6
20260509202006 73 203 0.0 8.0 0.00 0.00 0.00 53 1006.7
20260509201900 73 333 0.0 8.0 0.00 0.00 0.00 52 1006.7
20260509201755 73 261 1.0 8.0 0.00 0.00 0.00 52 1006.7
20260509201647 73 183 0.0 8.0 0.00 0.00 0.00 51 1006.7
20260509201541 73 176 0.0 8.0 0.00 0.00 0.00 51 1006.7
20260509201434 73 160 0.0 8.0 0.00 0.00 0.00 51 1006.7
20260509201330 73 135 0.0 8.0 0.00 0.00 0.00 50 1006.7
20260509201223 73 279 1.0 8.0 0.00 0.00 0.00 50 1006.7
20260509201117 73 216 1.0 8.0 0.00 0.00 0.00 49 1006.7
20260509201015 73 180 1.0 8.0 0.00 0.00 0.00 50 1006.7
20260509200911 73 344 1.0 8.0 0.00 0.00 0.00 50 1006.7
20260509200549 73 166 0.0 3.0 0.00 0.00 0.00 53 1006.8
20260509200445 73 145 0.0 3.0 0.00 0.00 0.00 52 1006.8
20260509200340 73 92 0.0 3.0 0.00 0.00 0.00 55 1006.8
20260509200233 73 197 0.0 3.0 0.00 0.00 0.00 54 1006.8
20260509200130 73 274 0.0 3.0 0.00 0.00 0.00 55 1006.9
20260509200023 73 123 0.0 2.0 0.00 0.00 0.00 55 1006.8
20260509195918 73 281 0.0 2.0 0.00 0.00 0.00 54 1006.8
20260509195813 73 180 0.0 2.0 0.00 0.00 0.00 53 1006.9
20260509195445 73 50 0.0 2.0 0.00 0.00 0.00 53 1006.9
20260509195338 73 107 0.0 2.0 0.00 0.00 0.00 55 1007.0
20260509195232 73 44 0.0 5.0 0.00 0.00 0.00 56 1007.0
20260509195126 73 142 0.0 5.0 0.00 0.00 0.00 56 1007.0
20260509195019 73 221 0.0 5.0 0.00 0.00 0.00 56 1007.1
20260509194912 73 106 0.0 5.0 0.00 0.00 0.00 54 1007.1
20260509194809 72 75 0.0 5.0 0.00 0.00 0.00 55 1007.1
20260509194445 72 85 0.0 5.0 0.00 0.00 0.00 53 1007.2
20260509194339 72 180 0.0 5.0 0.00 0.00 0.00 53 1007.2
20260509194230 73 254 0.0 5.0 0.00 0.00 0.00 53 1007.2
20260509193908 72 153 1.0 5.0 0.00 0.00 0.00 56 1007.4
20260509193802 72 99 1.0 5.0 0.00 0.00 0.00 56 1007.3
20260509193655 72 211 0.0 5.0 0.00 0.00 0.00 57 1007.4
20260509193549 72 160 1.0 5.0 0.00 0.00 0.00 55 1007.4
20260509193446 72 126 1.0 5.0 0.00 0.00 0.00 56 1007.4
20260509193343 72 44 1.0 5.0 0.00 0.00 0.00 55 1007.4
20260509193019 72 157 0.0 3.0 0.00 0.00 0.00 55 1007.5
20260509192654 72 225 0.0 3.0 0.00 0.00 0.00 58 1007.5
20260509192549 72 225 0.0 3.0 0.00 0.00 0.00 57 1007.5
20260509192445 72 121 0.0 2.0 0.00 0.00 0.00 56 1007.6
20260509192126 72 146 0.0 4.0 0.00 0.00 0.00 57 1007.6
20260509192021 72 128 1.0 4.0 0.00 0.00 0.00 58 1007.6
20260509191915 72 98 1.0 4.0 0.00 0.00 0.00 56 1007.7
20260509191809 72 51 1.0 4.0 0.00 0.00 0.00 54 1007.7
20260509191703 72 306 1.0 4.0 0.00 0.00 0.00 55 1007.8
20260509191557 72 106 0.0 4.0 0.00 0.00 0.00 57 1007.7
20260509191451 72 101 0.0 4.0 0.00 0.00 0.00 56 1007.8
20260509191125 72 228 0.0 8.0 0.00 0.00 0.00 61 1007.8
20260509190800 72 173 0.0 8.0 0.00 0.00 0.00 57 1007.9
20260509190437 71 46 0.0 8.0 0.00 0.00 0.00 58 1007.8
20260509190332 71 310 0.0 8.0 0.00 0.00 0.00 58 1007.9
20260509190006 71 107 1.0 8.0 0.00 0.00 0.00 59 1007.9
20260509185859 71 288 1.0 8.0 0.00 0.00 0.00 59 1008.0
20260509185753 71 100 1.0 8.0 0.00 0.00 0.00 57 1007.9
20260509185650 71 10 1.0 8.0 0.00 0.00 0.00 58 1007.9